カタログに戻る

USA 468

運用中軍事VLEO
NORAD 62537·PAYLOAD·🇺🇸 United States

打ち上げ Jan 10, 2025 から Vandenberg Space Force Base

Loading…

次のパス (今後24時間)

TLE

古いSource: Mike McCants

元期: Aug 23, 2026, 20:23 UTC

1 62537U 25005F   26235.84938154 0.00000000  00000-0  00000-0 0    08
2 62537  70.0200 246.9523 0003000 286.2416  73.7584 14.96713364    05

AllMySatでUSA 468をリアルタイム追跡

Download on the App Store